This is the latest recevied weather packets stored in our database for station/object IW9BHU-13. If no packets are shown the sender has not sent any weather packets the latest 1 day(s).
| Time | Temp. | Humidity | Pressure | Rain* | Wind** | Luminosity | Snow |
|---|---|---|---|---|---|---|---|
| 1778024164 | 17.78° C | 83% | 1013.1 hPa | 0 mm | 1.34 m/s, 199° | 0 W/m² | - |
| 1778024104 | 17.78° C | 83% | 1013.1 hPa | 0 mm | 1.34 m/s, 198° | 0 W/m² | - |
| 1778024049 | 17.78° C | 83% | 1013 hPa | 0 mm | 1.34 m/s, 197° | 0 W/m² | - |
| 1778023989 | 17.78° C | 83% | 1013.1 hPa | 0 mm | 1.34 m/s, 194° | 0 W/m² | - |
| 1778023924 | 17.78° C | 83% | 1013.1 hPa | 0 mm | 1.34 m/s, 195° | 0 W/m² | - |
| 1778023873 | 17.78° C | 83% | 1013 hPa | 0 mm | 1.34 m/s, 195° | 0 W/m² | - |
| 1778023805 | 17.78° C | 83% | 1013 hPa | 0 mm | 1.34 m/s, 198° | 0 W/m² | - |
| 1778023744 | 17.78° C | 83% | 1013.1 hPa | 0 mm | 1.34 m/s, 197° | 0 W/m² | - |
| 1778023684 | 17.78° C | 83% | 1013.2 hPa | 0 mm | 1.34 m/s, 197° | 0 W/m² | - |
| 1778023624 | 17.78° C | 83% | 1013.2 hPa | 0 mm | 1.34 m/s, 198° | 0 W/m² | - |
| 1778023564 | 17.78° C | 83% | 1013.2 hPa | 0 mm | 1.34 m/s, 199° | 0 W/m² | - |
| 1778023504 | 17.78° C | 83% | 1013.1 hPa | 0 mm | 1.34 m/s, 200° | 0 W/m² | - |
| 1778023444 | 17.78° C | 83% | 1013.1 hPa | 0 mm | 1.34 m/s, 201° | 0 W/m² | - |
| 1778023384 | 17.78° C | 83% | 1013.1 hPa | 0 mm | 1.34 m/s, 204° | 0 W/m² | - |
| 1778023324 | 17.78° C | 83% | 1013.1 hPa | 0 mm | 1.34 m/s, 206° | 0 W/m² | - |
| 1778023264 | 17.78° C | 83% | 1013 hPa | 0 mm | 1.34 m/s, 207° | 0 W/m² | - |
| 1778023205 | 17.78° C | 83% | 1013.1 hPa | 0 mm | 1.34 m/s, 205° | 0 W/m² | - |
| 1778023144 | 17.78° C | 83% | 1013.1 hPa | 0 mm | 1.34 m/s, 211° | 0 W/m² | - |
| 1778023084 | 17.78° C | 83% | 1013.3 hPa | 0 mm | 1.34 m/s, 214° | 0 W/m² | - |
| 1778023024 | 17.78° C | 83% | 1013.3 hPa | 0 mm | 1.34 m/s, 219° | 0 W/m² | - |
| 1778022966 | 17.78° C | 83% | 1013.2 hPa | 0 mm | 1.34 m/s, 213° | 0 W/m² | - |
| 1778022544 | 17.78° C | 83% | 1013.3 hPa | 0 mm | 1.34 m/s, 189° | 0 W/m² | - |
| 1778022484 | 17.78° C | 83% | 1013.3 hPa | 0 mm | 1.34 m/s, 190° | 0 W/m² | - |
| 1778022424 | 17.78° C | 83% | 1013.4 hPa | 0 mm | 1.34 m/s, 192° | 0 W/m² | - |
| 1778022364 | 17.78° C | 83% | 1013.3 hPa | 0 mm | 1.34 m/s, 194° | 0 W/m² | - |
* Rain latest hour (hover to see other rain measurements)
** Current wind speed in m/s (hover to see current wind gust speed)